Weather in Cumana

Venezuela     10°27′31″N   64°10′26″W
temp.,
°C
wind,
m/s
gust,
m/s
humid.,
%
clouds,
%
prec.,
mm/h
press.,
hPa
HPBL,
m
14 august, sun
sun1423:00+25s4487100 4.8 1014216
02:00+25ne3488100 8.8 1013289
05:00+25ese2284100 1.6 1013182
08:00+26se2278100 2.3 1014160
11:00+27ssw0173100 0.0 1014176
14:00+28nnw327085 0.1 1012403
17:00+28nnw2270100 0.8 1011316
20:00+27wsw0076100 1.4 101378
15 august, mon
mon1523:00+26sw3484100 2.3 1014184
02:00+26sw228199 2.3 1013177
05:00+26ese2280100 0.0 1012176
08:00+26ese33785 0.0 1014258
11:00+28nne22685 0.0 1014459
14:00+29nw326719 0.8 1011508
17:00+29ne45675 1.4 1010550
20:00+28e35775 1.6 1011139
16 august, tue
tue1623:00+27e47770 0.0 1013346
02:00+26ese35750 0.0 1011293
05:00+25ese35710 0.0 1011270
08:00+26se23674 0.0 1013309
11:00+28e13633 0.0 1013305
14:00+28nnw22691 0.1 1011520
17:00+28ne7108193 2.1 1010446
20:00+28ene81183100 2.3 1011409
17 august, wed
wed1723:00+27ene6108230 0.1 1013516
02:00+26e588289 0.1 1011402
05:00+26e477915 0.0 1012315
08:00+26e47755 0.0 1013402
11:00+29ne68694 0.0 1013392
14:00+29ne810723 0.0 1011433
17:00+28ene8107310 0.2 1010612
20:00+28ene7107994 0.8 1012721
18 august, thu
thu1823:00+27ene698040 0.3 1012547
02:00+26e58825 0.3 1011438
05:00+26e47805 0.0 1011369
08:00+26e47755 0.0 1012431
11:00+29ne57683 0.0 1012433
14:00+29ne77721 0.1 1009393
17:00+28ene567496 2.9 1009364
20:00+27ene478299 4.3 1010327